Location: Kalispell
(48.1967°N, 114.3128°W)
Time: 15:44:36
(UTC-07:00)

Amateur Radio Satellites - All Passes

Search period start: 19 December 2014 15:14
Search period end: 20 December 2014 15:14
Location: Kalispell, 48.1967°N, 114.3128°W

Satellite Date Start Highest point End Downlink Frequencies (MHz)
Time Altitude Azimuth
PCSat 19 Dec 15:25:32 15:30:56 70° 307° (NW) 15:36:23 145.827
Gurwin Techsat 1B 19 Dec 15:25:51 15:30:21 28° 266° (W) 15:34:53 435.225
AIST 2 19 Dec 15:27:38 15:31:54 79° 309° (NW) 15:36:14 435.215
ITUPSAT 1 19 Dec 15:28:04 15:32:07 28° 297° (WNW) 15:36:09 437.325
SWISSCUBE 19 Dec 15:28:13 15:32:08 26° 297° (WNW) 15:36:02 437.505
BEESAT 3 19 Dec 15:28:25 15:32:19 39° 316° (NW) 15:36:17 437.485
GONETS M04 19 Dec 15:34:45 15:41:45 25° 59° (ENE) 15:48:39
STARS 19 Dec 15:38:06 15:42:33 75° 103° (ESE) 15:46:59 437.465
KKS-1 19 Dec 15:39:08 15:43:37 75° 287° (WNW) 15:48:05 437.445
ITAMSAT 1 19 Dec 15:40:29 15:42:56 13° 273° (W) 15:45:24 435.822/435.867
AUBIESAT-1 19 Dec 15:50:31 15:54:44 40° 298° (WNW) 15:58:36 437.475
RS-15 19 Dec 15:51:32 16:01:35 39° 339° (NNW) 16:11:53 29.354- 29.394
ISS 19 Dec 15:52:00 15:55:18 82° 155° (SSE) 15:58:36 145.825
BEESAT 19 Dec 15:54:04 15:57:13 18° 302° (WNW) 16:00:20 436.000
AIST 1 19 Dec 15:55:45 15:57:47 13° 83° (E) 15:59:49
BEESAT 2 19 Dec 16:07:59 16:11:24 24° 324° (NW) 16:14:52 435.950
HORYU 2 19 Dec 16:12:52 16:16:06 19° 268° (W) 16:19:21 437.375
M-CUBED/EXP-1 PRIME 19 Dec 16:15:40 16:19:16 24° 304° (NW) 16:22:40 437.505
JAS-2 19 Dec 16:19:40 16:27:09 65° 70° (ENE) 16:33:57 435.910
MOZHAYETS 4 19 Dec 16:40:25 16:43:53 20° 91° (E) 16:47:18
Cubesat XI-IV 19 Dec 16:44:38 16:48:52 25° 60° (ENE) 16:53:07 437.490
AO-7 19 Dec 16:46:59 16:54:46 43° 262° (W) 17:02:39 29.400- 29.500
AIST 2 19 Dec 17:08:13 17:11:13 18° 330° (NNW) 17:14:14 435.215
BEESAT 3 19 Dec 17:09:59 17:11:38 12° 339° (NNW) 17:13:18 437.485
PCSat 19 Dec 17:11:28 17:15:21 20° 329° (NNW) 17:19:15 145.827
STARS 19 Dec 17:15:56 17:18:29 15° 302° (WNW) 17:21:02 437.465
CUTE-I 19 Dec 17:17:17 17:22:16 42° 66° (ENE) 17:27:15 437.470
KKS-1 19 Dec 17:18:12 17:19:29 11° 305° (NW) 17:20:45 437.445
ISS 19 Dec 17:28:53 17:32:04 44° 355° (N) 17:35:15 145.825
AIST 1 19 Dec 17:30:30 17:34:52 70° 281° (W) 17:39:14
GONETS M04 19 Dec 17:30:59 17:39:49 87° 262° (W) 17:48:32
HO-68 19 Dec 17:48:36 17:50:34 11° 38° (NE) 17:52:31 435.675
PRISM 19 Dec 17:50:39 17:53:02 15° 90° (E) 17:55:23 437.425
CUBESAT XI-V 19 Dec 18:02:02 18:03:13 11° 86° (E) 18:04:24 437.345
JAS-2 19 Dec 18:05:58 18:12:31 31° 267° (W) 18:18:37 435.910
RS-15 19 Dec 18:07:43 18:17:38 36° 13° (NNE) 18:27:50 29.354- 29.394
MOZHAYETS 4 19 Dec 18:16:54 18:21:25 51° 289° (WNW) 18:25:52
Cubesat XI-IV 19 Dec 18:23:22 18:28:37 57° 259° (W) 18:33:53 437.490
CUSAT 1 19 Dec 18:30:00 18:32:40 12° 51° (NE) 18:35:28 437.405
MaSat-1 19 Dec 18:41:27 18:43:48 78° 241° (WSW) 18:46:16 437.345
CUTE-I 19 Dec 18:57:46 19:02:27 31° 265° (W) 19:07:10 437.470
PCSat 19 Dec 19:00:20 19:01:04 10° 355° (N) 19:01:48 145.827
ISS 19 Dec 19:05:42 19:08:59 60° 15° (NNE) 19:12:13 145.825
DANDE 19 Dec 19:14:53 19:20:03 20° 59° (ENE) 19:25:50 436.750
AAUSAT CUBESAT 2 19 Dec 19:21:00 19:22:03 11° 56° (ENE) 19:23:05 437.432
STRAND 1 19 Dec 19:21:25 19:26:24 51° 100° (E) 19:31:21 437.568
BRITE-PL 19 Dec 19:21:40 19:24:19 17° 61° (ENE) 19:26:58 437.365/2234.400
PRISM 19 Dec 19:24:51 19:28:59 60° 288° (WNW) 19:33:03 437.425
CANX-2 19 Dec 19:28:26 19:31:34 20° 62° (ENE) 19:34:44 2200.000
GONETS M04 19 Dec 19:29:22 19:35:20 21° 285° (WNW) 19:41:16
HO-68 19 Dec 19:29:49 19:36:26 42° 60° (ENE) 19:43:04 435.675
CUBESAT XI-V 19 Dec 19:36:44 19:41:23 87° 104° (ESE) 19:45:59 437.345
GOMX 1 19 Dec 19:52:41 19:56:00 24° 64° (ENE) 19:59:22 467.674
COMPASS 1 19 Dec 19:52:52 19:56:14 24° 64° (ENE) 19:59:38 437.405
SEEDS 19 Dec 19:56:38 20:00:19 29° 66° (ENE) 20:04:02 437.485
CUTE 1.7 + AOD 2 19 Dec 19:58:29 20:02:21 35° 68° (ENE) 20:06:16 437.475
DX 1 19 Dec 20:08:47 20:11:18 15° 58° (ENE) 20:13:48 434.975-435.025
CUSAT 1 19 Dec 20:10:24 20:17:27 47° 71° (ENE) 20:25:29 437.405
DELFI C3 19 Dec 20:16:20 20:18:57 17° 61° (ENE) 20:21:35 145.870
RS-15 19 Dec 20:21:19 20:32:28 67° 44° (NE) 20:44:04 29.354- 29.394
DOVE 4 19 Dec 20:22:10 20:25:55 34° 68° (ENE) 20:29:45 437.250
BEESAT 3 19 Dec 20:29:16 20:31:46 15° 27° (NNE) 20:34:15 437.485
AIST 2 19 Dec 20:30:42 20:32:13 12° 19° (NNE) 20:33:45 435.215
Oscar 11 19 Dec 20:31:36 20:35:17 28° 65° (ENE) 20:39:00 145.826/435.025
UKube-1 19 Dec 20:39:32 20:43:12 27° 64° (ENE) 20:46:52 .
ISS 19 Dec 20:42:26 20:45:28 35° 214° (SW) 20:48:30 145.825
PCSat 19 Dec 20:44:05 20:47:02 15° 22° (NNE) 20:49:58 145.827
CUBEBUG 2 19 Dec 20:44:55 20:48:18 24° 64° (ENE) 20:51:46 437.445
AAUSAT CUBESAT 2 19 Dec 20:52:46 20:56:59 81° 75° (ENE) 21:01:15 437.432
CINEMA 3 19 Dec 20:54:29 20:58:26 44° 70° (ENE) 21:02:32 145.822/145.860
DANDE 19 Dec 20:57:11 21:04:29 76° 77° (ENE) 21:13:05 436.750
BRITE-PL 19 Dec 20:58:24 21:02:29 55° 260° (W) 21:06:35 437.365/2234.400
VELOX 1 19 Dec 20:58:57 21:01:49 17° 60° (ENE) 21:04:40 145.980
ZACube-1 19 Dec 20:59:40 21:03:07 25° 64° (ENE) 21:06:38 437.345
STRAND 1 19 Dec 21:01:11 21:05:18 26° 299° (WNW) 21:09:25 437.568
CANX-2 19 Dec 21:03:03 21:07:11 49° 261° (W) 21:11:24 2200.000
BEESAT 2 19 Dec 21:07:51 21:11:14 23° 35° (NE) 21:14:34 435.950
CUBESAT XI-V 19 Dec 21:15:50 21:18:10 14° 303° (WNW) 21:20:30 437.345
HO-68 19 Dec 21:17:11 21:24:04 48° 260° (W) 21:31:00 435.675
UWE-3 19 Dec 21:24:17 21:28:20 49° 71° (ENE) 21:32:30 435.000/436.395/437.385
FUNcube-1 19 Dec 21:26:03 21:30:01 44° 70° (ENE) 21:34:06 145.935
COMPASS 1 19 Dec 21:27:47 21:31:45 40° 262° (W) 21:35:47 437.405
GOMX 1 19 Dec 21:30:11 21:34:00 36° 263° (W) 21:37:53 467.674
SEEDS 19 Dec 21:32:18 21:36:06 31° 265° (W) 21:39:56 437.485
CUTE 1.7 + AOD 2 19 Dec 21:34:44 21:38:21 26° 266° (W) 21:42:00 437.475
AISAT 19 Dec 21:40:02 21:44:09 39° 68° (ENE) 21:48:17 437.250
DX 1 19 Dec 21:42:41 21:47:01 73° 257° (WSW) 21:51:22 434.975-435.025
SO-50 19 Dec 21:45:51 21:50:09 43° 120° (ESE) 21:54:36 436.795
DELFI C3 19 Dec 21:49:45 21:53:48 58° 259° (W) 21:57:55 145.870
CUBEBUG 1 19 Dec 21:50:27 21:53:43 21° 62° (ENE) 21:56:58 437.445
50 SAT 19 Dec 21:52:00 21:55:45 40° 69° (ENE) 21:59:34 437.505
CUSAT 1 19 Dec 21:53:32 22:00:36 48° 267° (W) 22:08:36 437.405
DOVE 4 19 Dec 22:00:24 22:03:49 24° 267° (W) 22:07:17 437.250
HUMSAT D 19 Dec 22:06:37 22:10:43 70° 74° (ENE) 22:14:55 437.325/437.525
BEESAT 3 19 Dec 22:06:37 22:10:47 61° 49° (NE) 22:14:54 437.485
Oscar 11 19 Dec 22:07:24 22:11:22 34° 264° (W) 22:15:22 145.826/435.025
AIST 2 19 Dec 22:08:09 22:12:07 34° 41° (NE) 22:16:02 435.215
UKube-1 19 Dec 22:15:16 22:19:15 35° 262° (W) 22:23:15 .
CUBEBUG 2 19 Dec 22:20:56 22:24:50 38° 263° (W) 22:28:52 437.445
TIGRISAT 19 Dec 22:22:19 22:25:45 20° 91° (E) 22:29:11 435.000
PCSat 19 Dec 22:26:46 22:31:56 42° 46° (NE) 22:37:04 145.827
AAUSAT CUBESAT 2 19 Dec 22:31:53 22:33:14 11° 273° (W) 22:34:35 437.432
ESTCUBE 1 19 Dec 22:32:41 22:37:07 54° 71° (ENE) 22:41:33 437.505/2401.250
CINEMA 3 19 Dec 22:32:54 22:35:56 19° 269° (W) 22:39:03 145.822/145.860
VELOX 1 19 Dec 22:33:33 22:37:56 65° 258° (WSW) 22:42:21 145.980
POPSAT HIP 1 19 Dec 22:34:04 22:36:38 16° 90° (E) 22:39:12 437.405
RS-15 19 Dec 22:34:05 22:44:30 46° 248° (WSW) 22:55:22 29.354- 29.394
ZACube-1 19 Dec 22:35:28 22:39:21 36° 263° (W) 22:43:19 437.345
DANDE 19 Dec 22:41:26 22:47:33 29° 273° (W) 22:54:26 436.750
BEESAT 2 19 Dec 22:45:42 22:49:54 68° 235° (SW) 22:54:01 435.950
YUBILEINY 19 Dec 22:48:36 22:54:18 20° 75° (ENE) 23:00:00 435.215
UNISAT 6 19 Dec 22:50:23 22:54:43 36° 97° (E) 22:59:04 437.425
TISAT 1 19 Dec 23:01:09 23:04:43 28° 65° (ENE) 23:08:18 437.305
SPROUT 19 Dec 23:01:37 23:05:10 26° 65° (ENE) 23:08:44 437.525
DUCHIFAT 1 19 Dec 23:01:43 23:05:25 28° 95° (E) 23:09:06 145.980
UWE-3 19 Dec 23:02:19 23:05:13 18° 270° (W) 23:08:10 435.000/436.395/437.385
FUNcube-1 19 Dec 23:03:29 23:06:37 20° 268° (W) 23:09:49 145.935
BUGSAT 1 19 Dec 23:05:13 23:08:33 24° 94° (E) 23:11:53 437.445
QB50P2 19 Dec 23:14:24 23:18:25 39° 98° (E) 23:22:26 145.880/145.840
AISAT 19 Dec 23:17:18 23:20:55 25° 266° (W) 23:24:33 437.250
ANTELSAT 19 Dec 23:22:01 23:26:44 71° 102° (ESE) 23:31:27 437.575/2403.000
POLYITAN 1 19 Dec 23:22:50 23:26:59 47° 99° (E) 23:31:09 437.675
CUBEBUG 1 19 Dec 23:25:34 23:29:47 48° 260° (W) 23:34:02 437.445
SWISSCUBE 19 Dec 23:25:44 23:27:46 13° 54° (NE) 23:29:48 437.505
NANOSAT C BR1 19 Dec 23:25:51 23:30:00 50° 100° (E) 23:34:09 145.865
ITUPSAT 1 19 Dec 23:26:14 23:27:56 12° 54° (NE) 23:29:37 437.325
SO-50 19 Dec 23:26:34 23:30:48 35° 321° (NW) 23:35:11 436.795
50 SAT 19 Dec 23:28:07 23:31:09 21° 268° (W) 23:34:14 437.505
AUBIESAT-1 19 Dec 23:35:58 23:37:55 12° 48° (NE) 23:39:52 437.475
QB50P1 19 Dec 23:40:03 23:44:19 71° 103° (ESE) 23:48:34 145.935-145.965
CUSAT 1 19 Dec 23:41:48 23:42:18 10° 285° (WNW) 23:42:48 437.405
HUMSAT D 19 Dec 23:45:13 23:47:03 13° 272° (W) 23:48:54 437.325/437.525
BEESAT 3 19 Dec 23:45:41 23:48:33 18° 247° (WSW) 23:51:24 437.485
AIST 2 19 Dec 23:46:48 23:50:47 38° 241° (WSW) 23:54:43 435.215
BEESAT 19 Dec 23:49:25 23:52:41 19° 59° (ENE) 23:55:58 436.000
TIGRISAT 19 Dec 23:58:14 00:02:49 55° 289° (WNW) 00:07:25 435.000
M-CUBED/EXP-1 PRIME 19 Dec 23:59:04 00:02:33 20° 53° (NE) 00:06:03 437.505
POPSAT HIP 1 20 Dec 00:08:43 00:12:56 60° 288° (WNW) 00:17:08 437.405
PCSat 20 Dec 00:10:20 00:15:20 39° 246° (WSW) 00:20:19 145.827
ESTCUBE 1 20 Dec 00:11:07 00:14:19 19° 269° (W) 00:17:33 437.505/2401.250
UNISAT 6 20 Dec 00:27:19 00:31:26 31° 294° (WNW) 00:35:34 437.425
TISAT 1 20 Dec 00:36:40 00:40:28 32° 263° (W) 00:44:17 437.305
SPROUT 20 Dec 00:37:12 00:41:08 36° 263° (W) 00:45:06 437.525
DUCHIFAT 1 20 Dec 00:37:31 00:41:17 32° 293° (WNW) 00:45:04 145.980
BUGSAT 1 20 Dec 00:40:28 00:44:08 34° 292° (WNW) 00:47:48 437.445
YUBILEINY 20 Dec 00:41:00 00:49:45 83° 97° (E) 00:58:30 435.215
O/OREOS (USA 219) 20 Dec 00:43:55 00:47:30 24° 104° (ESE) 00:51:06 437.305
QB50P2 20 Dec 00:50:43 00:54:10 24° 296° (WNW) 00:57:37 145.880/145.840
POLYITAN 1 20 Dec 00:59:27 01:02:39 21° 297° (WNW) 01:05:51 437.675
ANTELSAT 20 Dec 00:59:57 01:03:01 18° 301° (WNW) 01:06:06 437.575/2403.000
SWISSCUBE 20 Dec 01:00:02 01:04:50 78° 73° (ENE) 01:09:39 437.505
ITUPSAT 1 20 Dec 01:00:11 01:04:58 71° 73° (ENE) 01:09:47 437.325
NANOSAT C BR1 20 Dec 01:02:30 01:05:34 20° 298° (WNW) 01:08:37 145.865
STARS 20 Dec 01:04:56 01:07:16 14° 58° (ENE) 01:09:36 437.465
KKS-1 20 Dec 01:05:51 01:09:05 20° 61° (ENE) 01:12:20 437.445
AUBIESAT-1 20 Dec 01:07:10 01:11:58 63° 66° (ENE) 01:16:49 437.475
SO-50 20 Dec 01:10:23 01:12:45 14° 344° (NNW) 01:15:09 436.795
QB50P1 20 Dec 01:17:18 01:19:42 15° 301° (WNW) 01:22:06 145.935-145.965
BEESAT 20 Dec 01:25:16 01:30:03 68° 257° (WSW) 01:34:51 436.000
M-CUBED/EXP-1 PRIME 20 Dec 01:32:09 01:37:01 76° 252° (WSW) 01:41:58 437.505
Oscar 19 20 Dec 01:52:41 01:57:42 46° 99° (E) 02:02:41 437.125/150
Gurwin Techsat 1B 20 Dec 01:59:06 02:01:47 14° 87° (E) 02:04:28 435.225
ITAMSAT 1 20 Dec 02:07:15 02:11:27 25° 93° (E) 02:15:39 435.822/435.867
O/OREOS (USA 219) 20 Dec 02:22:26 02:26:41 42° 303° (WNW) 02:30:57 437.305
STARS 20 Dec 02:38:46 02:43:09 79° 256° (WSW) 02:47:35 437.465
ITUPSAT 1 20 Dec 02:40:28 02:43:23 16° 271° (W) 02:46:18 437.325
YUBILEINY 20 Dec 02:40:39 02:47:41 26° 300° (WNW) 02:54:45 435.215
SWISSCUBE 20 Dec 02:40:40 02:43:16 15° 272° (W) 02:45:54 437.505
KKS-1 20 Dec 02:41:04 02:45:23 52° 260° (W) 02:49:45 437.445
AUBIESAT-1 20 Dec 02:43:41 02:47:16 20° 264° (W) 02:50:53 437.475
SO-50 20 Dec 02:53:33 02:55:24 12° 9° (N) 02:57:15 436.795
AO-7 20 Dec 02:54:59 02:56:59 11° 81° (E) 02:58:58 29.400- 29.500
M-CUBED/EXP-1 PRIME 20 Dec 03:11:25 03:12:47 11° 269° (W) 03:14:09 437.505
Oscar 19 20 Dec 03:32:25 03:36:51 29° 297° (WNW) 03:41:16 437.125/150
AIST 1 20 Dec 03:34:13 03:38:18 41° 75° (ENE) 03:42:20
Gurwin Techsat 1B 20 Dec 03:37:10 03:42:31 90° 105° (ESE) 03:47:50 435.225
MOZHAYETS 4 20 Dec 03:45:50 03:49:52 30° 65° (ENE) 03:53:54
ITAMSAT 1 20 Dec 03:46:13 03:51:14 51° 291° (WNW) 03:56:13 435.822/435.867
HORYU 2 20 Dec 03:59:10 04:03:41 64° 102° (ESE) 04:08:10 437.375
SO-50 20 Dec 04:33:36 04:37:38 25° 33° (NNE) 04:41:41 436.795
GONETS M04 20 Dec 04:42:23 04:48:52 24° 77° (ENE) 04:55:21
AO-7 20 Dec 04:43:30 04:51:44 56° 102° (ESE) 04:59:53 29.400- 29.500
PRISM 20 Dec 04:44:49 04:47:53 20° 62° (ENE) 04:50:58 437.425
VERMONT LUNAR 20 Dec 04:59:27 05:02:03 19° 168° (SSE) 05:04:40 437.305
STRAND 1 20 Dec 05:04:05 05:07:28 18° 57° (ENE) 05:10:50 437.568
CUBESAT XI-V 20 Dec 05:08:13 05:11:23 18° 60° (ENE) 05:14:32 437.345
PHONESAT 2.4 20 Dec 05:10:31 05:13:06 18° 165° (SSE) 05:15:41 2401.200-2431.200
JAS-2 20 Dec 05:11:27 05:16:42 35° 94° (E) 05:21:32 435.910
AIST 1 20 Dec 05:12:31 05:15:41 21° 273° (W) 05:18:51
Gurwin Techsat 1B 20 Dec 05:18:32 05:21:46 17° 305° (NW) 05:25:01 435.225
MOZHAYETS 4 20 Dec 05:22:42 05:26:59 36° 264° (W) 05:31:19
CUTE-I 20 Dec 05:32:41 05:34:39 12° 86° (E) 05:36:37 437.470
HORYU 2 20 Dec 05:36:52 05:39:54 18° 300° (WNW) 05:42:54 437.375
SO-50 20 Dec 06:13:49 06:18:42 78° 234° (SW) 06:23:37 436.795
PRISM 20 Dec 06:19:00 06:23:07 49° 260° (W) 06:27:14 437.425
GONETS M04 20 Dec 06:35:43 06:44:35 86° 279° (W) 06:53:29
AO-7 20 Dec 06:36:38 06:44:20 43° 303° (WNW) 06:52:01 29.400- 29.500
VERMONT LUNAR 20 Dec 06:36:55 06:39:46 23° 185° (S) 06:42:37 437.305
Cubesat XI-IV 20 Dec 06:36:56 06:42:00 43° 98° (E) 06:47:03 437.490
STRAND 1 20 Dec 06:40:57 06:46:04 78° 256° (WSW) 06:51:13 437.568
CUBESAT XI-V 20 Dec 06:43:43 06:48:22 65° 259° (WSW) 06:53:01 437.345
PHONESAT 2.4 20 Dec 06:48:11 06:51:10 24° 182° (S) 06:54:09 2401.200-2431.200
JAS-2 20 Dec 06:56:33 07:01:54 38° 297° (WNW) 07:06:47 435.910
CUTE-I 20 Dec 07:10:14 07:15:35 80° 104° (ESE) 07:20:54 437.470
SO-50 20 Dec 07:56:26 07:58:29 13° 252° (WSW) 08:00:32 436.795
VERMONT LUNAR 20 Dec 08:15:38 08:17:23 13° 201° (SSW) 08:19:08 437.305
Cubesat XI-IV 20 Dec 08:17:19 08:21:58 31° 297° (WNW) 08:26:35 437.490
STRAND 1 20 Dec 08:24:40 08:26:07 11° 275° (W) 08:27:33 437.568
PHONESAT 2.4 20 Dec 08:26:57 08:29:11 16° 199° (SSW) 08:31:25 2401.200-2431.200
AO-7 20 Dec 08:31:14 08:34:58 14° 327° (NNW) 08:38:42 29.400- 29.500
AAUSAT CUBESAT 2 20 Dec 08:35:35 08:36:23 10° 86° (E) 08:37:11 437.432
GONETS M04 20 Dec 08:36:08 08:42:50 23° 303° (WNW) 08:49:35
HO-68 20 Dec 08:40:52 08:46:57 29° 93° (E) 08:52:58 435.675
CANX-2 20 Dec 08:45:28 08:48:55 23° 93° (E) 08:52:20 2200.000
ANTELSAT 20 Dec 08:50:55 08:53:07 14° 57° (ENE) 08:55:21 437.575/2403.000
CUTE-I 20 Dec 08:51:28 08:55:03 19° 303° (WNW) 08:58:38 437.470
YUBILEINY 20 Dec 08:52:08 08:55:44 13° 45° (NE) 08:59:20 435.215
BRITE-PL 20 Dec 08:58:27 09:02:40 33° 97° (E) 09:07:10 437.365/2234.400
QB50P1 20 Dec 09:04:11 09:05:31 11° 56° (ENE) 09:06:51 145.935-145.965
COMPASS 1 20 Dec 09:08:19 09:11:55 26° 94° (E) 09:15:30 437.405
O/OREOS (USA 219) 20 Dec 09:10:58 09:13:39 15° 44° (NE) 09:16:19 437.305
SEEDS 20 Dec 09:13:06 09:17:02 34° 96° (E) 09:20:56 437.485
CUTE 1.7 + AOD 2 20 Dec 09:15:54 09:20:01 41° 98° (E) 09:24:06 437.475
TIGRISAT 20 Dec 09:24:56 09:28:34 26° 64° (ENE) 09:32:16 435.000
GOMX 1 20 Dec 09:26:58 09:31:29 45° 99° (E) 09:36:18 467.674
CUSAT 1 20 Dec 09:27:41 09:30:54 25° 85° (E) 09:34:55 437.405
DELFI C3 20 Dec 09:27:56 09:30:31 16° 90° (E) 09:33:05 145.870
DX 1 20 Dec 09:28:52 09:31:23 15° 90° (E) 09:33:53 434.975-435.025
POPSAT HIP 1 20 Dec 09:30:49 09:33:52 20° 62° (ENE) 09:36:56 437.405
MaSat-1 20 Dec 09:35:57 09:38:13 58° 118° (ESE) 09:40:24 437.345
Oscar 11 20 Dec 09:50:59 09:54:57 33° 96° (E) 09:58:53 145.826/435.025
UNISAT 6 20 Dec 09:53:10 09:57:22 47° 70° (ENE) 10:01:43 437.425
DOVE 4 20 Dec 09:54:04 09:58:44 62° 101° (E) 10:03:41 437.250
DUCHIFAT 1 20 Dec 09:58:06 10:01:54 34° 68° (ENE) 10:05:44 145.980
BUGSAT 1 20 Dec 09:59:10 10:02:42 29° 66° (ENE) 10:06:13 437.445
UKube-1 20 Dec 09:59:25 10:03:12 29° 96° (E) 10:06:58 .
CUBEBUG 2 20 Dec 10:08:03 10:12:16 34° 96° (E) 10:16:34 437.445
AAUSAT CUBESAT 2 20 Dec 10:08:24 10:12:41 87° 284° (WNW) 10:16:55 437.432
QB50P2 20 Dec 10:11:05 10:15:08 47° 70° (ENE) 10:19:13 145.880/145.840
DANDE 20 Dec 10:16:58 10:20:33 62° 96° (E) 10:25:26 436.750
POLYITAN 1 20 Dec 10:19:42 10:23:50 58° 72° (ENE) 10:28:00 437.675
ZACube-1 20 Dec 10:20:17 10:24:23 33° 96° (E) 10:28:31 437.345
CANX-2 20 Dec 10:20:56 10:25:01 41° 291° (WNW) 10:29:03 2200.000
VELOX 1 20 Dec 10:21:38 10:24:46 19° 92° (E) 10:27:53 145.980
CINEMA 3 20 Dec 10:22:08 10:26:50 72° 102° (ESE) 10:31:42 145.822/145.860
NANOSAT C BR1 20 Dec 10:22:13 10:26:21 61° 72° (ENE) 10:30:32 145.865
ANTELSAT 20 Dec 10:24:51 10:29:15 86° 256° (WSW) 10:33:48 437.575/2403.000
HO-68 20 Dec 10:28:05 10:35:10 65° 293° (WNW) 10:42:12 435.675
QB50P1 20 Dec 10:36:30 10:40:43 85° 75° (ENE) 10:44:58 145.935-145.965
BRITE-PL 20 Dec 10:37:05 10:41:11 33° 292° (WNW) 10:45:33 437.365/2234.400
COMPASS 1 20 Dec 10:43:49 10:47:43 35° 292° (WNW) 10:51:35 437.405
YUBILEINY 20 Dec 10:46:45 10:55:11 51° 72° (ENE) 11:03:34 435.215
UWE-3 20 Dec 10:46:46 10:51:20 70° 102° (ESE) 10:55:58 435.000/436.395/437.385
FUNcube-1 20 Dec 10:46:55 10:51:23 59° 101° (E) 10:55:54 145.935
SEEDS 20 Dec 10:49:07 10:52:46 28° 294° (WNW) 10:56:25 437.485
O/OREOS (USA 219) 20 Dec 10:49:13 10:53:45 88° 64° (ENE) 10:58:17 437.305
CUTE 1.7 + AOD 2 20 Dec 10:52:18 10:55:44 24° 296° (WNW) 10:59:10 437.475
RS-15 20 Dec 10:53:05 11:00:54 23° 100° (E) 11:08:42 29.354- 29.394
TIGRISAT 20 Dec 11:01:04 11:05:09 39° 263° (W) 11:09:22 435.000
DELFI C3 20 Dec 11:02:05 11:06:08 54° 288° (WNW) 11:10:09 145.870
50 SAT 20 Dec 11:03:40 11:07:38 42° 98° (E) 11:11:35 437.505
DX 1 20 Dec 11:03:45 11:08:04 64° 288° (WNW) 11:12:21 434.975-435.025
AISAT 20 Dec 11:03:50 11:08:08 48° 100° (E) 11:12:26 437.250
POPSAT HIP 1 20 Dec 11:05:23 11:09:27 48° 260° (W) 11:13:34 437.405
GOMX 1 20 Dec 11:05:37 11:09:26 26° 295° (WNW) 11:13:27 467.674
CUSAT 1 20 Dec 11:10:04 11:13:42 34° 295° (WNW) 11:18:28 437.405
CUBEBUG 1 20 Dec 11:11:26 11:14:56 23° 93° (E) 11:18:25 437.445
HUMSAT D 20 Dec 11:23:14 11:27:36 84° 104° (ESE) 11:31:57 437.325/437.525
Oscar 11 20 Dec 11:27:16 11:31:04 29° 294° (WNW) 11:34:50 145.826/435.025
UNISAT 6 20 Dec 11:31:08 11:34:27 21° 269° (W) 11:37:50 437.425
DOVE 4 20 Dec 11:32:47 11:36:09 20° 298° (WNW) 11:39:38 437.250
DUCHIFAT 1 20 Dec 11:34:20 11:37:51 25° 266° (W) 11:41:23 145.980
BUGSAT 1 20 Dec 11:34:35 11:38:10 29° 264° (W) 11:41:45 437.445
UKube-1 20 Dec 11:35:30 11:39:23 33° 294° (WNW) 11:43:15 .
Oscar 19 20 Dec 11:36:33 11:39:39 16° 56° (NE) 11:42:46 437.125/150
CUBEBUG 2 20 Dec 11:44:51 11:48:55 32° 293° (WNW) 11:53:03 437.445
AAUSAT CUBESAT 2 20 Dec 11:46:11 11:47:40 12° 303° (WNW) 11:49:08 437.432
QB50P2 20 Dec 11:48:18 11:51:19 19° 268° (W) 11:54:21 145.880/145.840
ZACube-1 20 Dec 11:56:44 12:00:42 31° 293° (WNW) 12:04:44 437.345
VELOX 1 20 Dec 11:57:21 12:01:40 52° 290° (WNW) 12:05:57 145.980
POLYITAN 1 20 Dec 11:57:37 12:00:10 16° 270° (W) 12:02:43 437.675
ESTCUBE 1 20 Dec 11:58:40 12:03:11 72° 103° (ESE) 12:07:39 437.505/2401.250
NANOSAT C BR1 20 Dec 12:00:15 12:02:39 15° 270° (W) 12:05:04 145.865
CINEMA 3 20 Dec 12:00:31 12:03:34 18° 300° (WNW) 12:06:42 145.822/145.860
DANDE 20 Dec 12:02:31 12:04:59 15° 306° (NW) 12:07:52 436.750
ANTELSAT 20 Dec 12:06:30 12:06:49 10° 275° (W) 12:07:07 437.575/2403.000
QB50P1 20 Dec 12:16:23 12:17:13 11° 273° (W) 12:18:04 145.935-145.965
HO-68 20 Dec 12:17:18 12:21:36 17° 314° (NW) 12:25:54 435.675
TISAT 1 20 Dec 12:17:53 12:21:37 29° 96° (E) 12:25:19 437.305
SPROUT 20 Dec 12:20:18 12:24:06 30° 95° (E) 12:27:54 437.525
FUNcube-1 20 Dec 12:24:11 12:27:21 19° 298° (WNW) 12:30:32 145.935
UWE-3 20 Dec 12:24:28 12:27:24 17° 300° (WNW) 12:30:22 435.000/436.395/437.385
O/OREOS (USA 219) 20 Dec 12:30:57 12:32:26 12° 263° (W) 12:33:55 437.305
50 SAT 20 Dec 12:39:26 12:42:38 22° 296° (WNW) 12:45:49 437.505
AISAT 20 Dec 12:41:06 12:44:29 22° 298° (WNW) 12:47:52 437.250
YUBILEINY 20 Dec 12:43:54 12:51:52 42° 274° (W) 12:59:49 435.215
CUBEBUG 1 20 Dec 12:47:24 12:51:27 40° 291° (WNW) 12:55:30 437.445
SWISSCUBE 20 Dec 12:58:18 13:01:06 15° 89° (E) 13:03:53 437.505
ITUPSAT 1 20 Dec 12:58:54 13:01:25 14° 88° (E) 13:03:55 437.325
RS-15 20 Dec 13:00:34 13:11:28 82° 124° (SE) 13:22:31 29.354- 29.394
HUMSAT D 20 Dec 13:00:43 13:02:48 13° 302° (WNW) 13:04:52 437.325/437.525
Oscar 19 20 Dec 13:13:08 13:18:17 89° 255° (WSW) 13:23:31 437.125/150
PCSat 20 Dec 13:14:27 13:17:37 16° 104° (ESE) 13:20:48 145.827
BEESAT 20 Dec 13:22:35 13:26:26 24° 93° (E) 13:30:16 436.000
Gurwin Techsat 1B 20 Dec 13:23:00 13:27:39 32° 64° (ENE) 13:32:19 435.225
HORYU 2 20 Dec 13:27:26 13:29:36 14° 56° (ENE) 13:31:47 437.375
ISS 20 Dec 13:28:18 13:28:38 10° 133° (SE) 13:28:59 145.825
ITAMSAT 1 20 Dec 13:28:35 13:33:36 53° 69° (ENE) 13:38:39 435.822/435.867
ESTCUBE 1 20 Dec 13:36:48 13:39:31 16° 301° (WNW) 13:42:14 437.505/2401.250
BEESAT 3 20 Dec 13:42:35 13:46:20 35° 119° (ESE) 13:50:08 437.485
AIST 2 20 Dec 13:49:14 13:52:18 20° 113° (ESE) 13:55:23 435.215
TISAT 1 20 Dec 13:53:43 13:57:25 30° 294° (WNW) 14:01:08 437.305
AO-7 20 Dec 13:55:55 14:02:39 29° 49° (NE) 14:09:24 29.400- 29.500
SPROUT 20 Dec 13:56:23 14:00:11 31° 293° (WNW) 14:03:58 437.525
BEESAT 2 20 Dec 14:21:50 14:25:58 74° 125° (SE) 14:30:10 435.950
AUBIESAT-1 20 Dec 14:22:12 14:25:57 27° 99° (E) 14:29:26 437.475
STARS 20 Dec 14:26:31 14:29:07 15° 90° (E) 14:31:44 437.465
KKS-1 20 Dec 14:29:08 14:32:43 23° 93° (E) 14:36:18 437.445
SWISSCUBE 20 Dec 14:34:44 14:39:30 72° 287° (WNW) 14:44:14 437.505
ITUPSAT 1 20 Dec 14:35:06 14:39:54 78° 287° (WNW) 14:44:40 437.325
GONETS M04 20 Dec 14:46:24 14:51:10 15° 48° (NE) 14:55:54
M-CUBED/EXP-1 PRIME 20 Dec 14:47:20 14:51:44 53° 105° (ESE) 14:55:44 437.505
PCSat 20 Dec 14:54:51 15:00:16 89° 303° (WNW) 15:05:45 145.827
Oscar 19 20 Dec 14:56:01 14:58:24 13° 274° (W) 15:00:48 437.125/150
BEESAT 20 Dec 14:59:56 15:04:30 46° 291° (WNW) 15:09:03 436.000
HORYU 2 20 Dec 15:01:08 15:05:36 89° 253° (WSW) 15:10:09 437.375
ISS 20 Dec 15:01:22 15:04:36 54° 151° (SSE) 15:07:50 145.825
Gurwin Techsat 1B 20 Dec 15:02:29 15:07:30 42° 262° (W) 15:12:32 435.225
